Track STARLINK-1992 now! 10-day predictions STARLINK-1992 is classified as:
1 47632U 21012N 21109.58334491 -.00023987 00000-0 -16653-3 0 9993 2 47632 53.0453 150.8334 0002454 19.1637 301.5177 15.73251292 1765